Location: Unspecified
(0.0000°N, 0.0000°E)
Time: 18:43:06
(UTC+00:00)

COSMOS 2401 - Pass Details

Date: 03 March 2021
Orbit: 1467 x 1500 km, 82.5° (Epoch: 11 April)

Event Time Altitude Azimuth Distance (km) Brightness Sun altitude
Rises 19:28:31 0° 182° (S) 4,578 10.1 -19.0°
Reaches altitude 10° 19:31:23 10° 181° (S) 3,598 9.5 -19.8°
Maximum altitude 19:40:02 84° 93° (E) 1,481 7.3 -21.9°
Drops below altitude 10° 19:48:42 10° 6° (N) 3,604 9.3 -24.1°
Sets 19:51:33 0° 5° (N) 4,586 9.9 -24.8°
